This demonstration page uses our WeatherBlox Daily Observations layout. Learn more.

Hourly Observations for February 6, 2018

Temp ( °F °C ) Dew Point ( °F °C ) Humidity (%) Winds ( mph kmh ) Pressure ( in mb ) Visibility ( mi km ) Precip ( " mm )
12:15 am 00:15 Clear 8 -13.1 3 -16.3 77 77 W 5 7 30.56 1035 10 16.0934 0 0
12:35 am 00:35 Clear 8 -13.2 3 -16.2 78 78 Calm 30.56 1035 10 16.0934 0 0
12:55 am 00:55 Clear 9 -12.8 3 -16 77 77 NNW 5 7 30.56 1035 10 16.0934 0 0
1:15 am 01:15 Clear 9 -13 3 -16 78 78 N 3 6 30.53 1034 10 16.0934 0 0
1:35 am 01:35 Clear 9 -13 4 -15.7 80 80 N 7 11 30.53 1034 10 16.0934 0 0
1:55 am 01:55 Clear 8 -13.2 3 -16 80 80 N 7 11 30.53 1034 10 16.0934 0 0
2:15 am 02:15 Clear 8 -13.3 3 -16 80 80 N 5 7 30.53 1034 10 16.0934 0 0
2:35 am 02:35 Clear 8 -13.5 3 -16 82 82 NNE 5 7 30.5 1033 10 16.0934 0 0
2:55 am 02:55 Clear 8 -13.6 3 -16.2 81 81 Calm 30.53 1034 10 16.0934 0 0
3:15 am 03:15 Partly Cloudy 7 -13.8 2 -16.5 80 80 Calm 30.53 1034 10 16.0934 0 0
3:35 am 03:35 Mostly Cloudy 7 -13.8 3 -16.2 82 82 ENE 5 7 30.53 1034 10 16.0934 0 0
3:55 am 03:55 Cloudy 9 -12.9 4 -15.7 80 80 NE 7 11 30.53 1034 10 16.0934 0 0
4:15 am 04:15 Cloudy 9 -12.9 3 -15.9 78 78 E 5 7 30.53 1034 10 16.0934 0 0
4:35 am 04:35 Cloudy 9 -12.6 4 -15.7 78 78 ESE 5 7 30.53 1034 10 16.0934 0 0
4:55 am 04:55 Cloudy 9 -12.8 3 -16 77 77 E 6 9 30.53 1034 10 16.0934 0 0
5:15 am 05:15 Cloudy 9 -12.8 4 -15.8 78 78 E 8 13 30.53 1034 10 16.0934 0 0
5:35 am 05:35 Cloudy 9 -13 4 -15.7 80 80 ESE 8 13 30.5 1033 10 16.0934 0 0
5:55 am 05:55 Cloudy 9 -12.9 4 -15.6 80 80 ESE 8 13 30.5 1033 10 16.0934 0 0
6:15 am 06:15 Cloudy 9 -13 4 -15.5 82 82 SE 7 11 30.5 1033 10 16.0934 0 0
6:35 am 06:35 Cloudy 8 -13.1 4 -15.7 81 81 ESE 6 9 30.53 1034 10 16.0934 0 0
6:55 am 06:55 Cloudy 8 -13.1 3 -15.9 80 80 SE 6 9 30.5 1033 10 16.0934 0 0
7:15 am 07:15 Cloudy 8 -13.2 3 -16 80 80 ESE 6 9 30.53 1034 10 16.0934 0 0
7:35 am 07:35 Cloudy 8 -13.3 3 -16.1 80 80 SE 6 9 30.53 1034 10 16.0934 0 0
7:55 am 07:55 Cloudy 8 -13.2 3 -16 80 80 SE 6 9 30.53 1034 10 16.0934 0 0
8:15 am 08:15 Cloudy 8 -13.1 4 -15.8 80 80 SE 5 7 30.53 1034 10 16.0934 0 0
8:35 am 08:35 Cloudy with Light Snow 8 -13.5 3 -16.1 81 81 SSE 5 7 30.53 1034 1.75 2.816345 0 0
8:55 am 08:55 Cloudy with Light Snow 8 -13.4 4 -15.5 84 84 SE 7 11 30.5 1033 1.75 2.816345 0 0
9:15 am 09:15 Cloudy with Light Snow 8 -13.3 4 -15.5 84 84 SE 9 15 30.5 1033 1.75 2.816345 0 0
9:35 am 09:35 Cloudy with Light Snow 8 -13.3 4 -15.5 84 84 ESE 10 17 30.5 1033 2 3.21868 0 0
9:55 am 09:55 Cloudy with Light Snow 8 -13.4 4 -15.3 86 86 SE 12 19 30.5 1033 1.75 2.816345 0 0
10:15 am 10:15 Cloudy with Light Snow 8 -13.3 4 -15.3 85 85 SE 12 19 30.48 1032 1.75 2.816345 0 0
10:35 am 10:35 Cloudy with Light Snow 8 -13.1 5 -15.2 84 84 SSE 14 22 30.5 1033 2.5 4.02335 0 0
10:55 am 10:55 Cloudy with Light Snow 8 -13.1 4 -15.3 84 84 SE 10 17 30.5 1033 2.5 4.02335 0 0
11:15 am 11:15 Cloudy with Light Snow 8 -13.2 4 -15.4 84 84 SSE 10 17 30.5 1033 2.5 4.02335 0 0
11:35 am 11:35 Cloudy with Light Snow 8 -13.1 4 -15.3 84 84 SE 10 17 30.48 1032 2 3.21868 0 0
11:55 am 11:55 Cloudy with Light Snow 9 -13 5 -15.2 84 84 SSE 8 13 30.45 1031 1.75 2.816345 0 0
12:15 pm 12:15 Cloudy with Light Snow 9 -12.7 5 -14.8 84 84 SSE 12 19 30.45 1031 1.75 2.816345 0 0
12:35 pm 12:35 Cloudy with Light Snow 10 -12.5 6 -14.6 84 84 SSE 8 13 30.45 1031 1.75 2.816345 0 0
12:55 pm 12:55 Cloudy with Light Snow 9 -12.6 6 -14.6 85 85 SSE 9 15 30.42 1030 1 1.60934 0 0
1:15 pm 13:15 Cloudy with Light Snow 10 -12.3 6 -14.3 85 85 SSE 9 15 30.42 1030 1.25 2.011675 0 0
1:35 pm 13:35 Cloudy with Light Snow 10 -12 7 -14.1 85 85 SSE 8 13 30.42 1030 1.25 2.011675 0.01 0.254
1:55 pm 13:55 Cloudy with Light Snow 10 -12 7 -14 85 85 S 8 13 30.42 1030 0.75 1.207005 0.01 0.254
2:15 pm 14:15 Cloudy with Light Snow 10 -12 7 -14 85 85 S 7 11 30.39 1029 1 1.60934 0 0
2:35 pm 14:35 Cloudy with Light Snow 10 -12 7 -14 85 85 S 6 9 30.39 1029 1 1.60934 0.01 0.254
2:55 pm 14:55 Cloudy with Light Snow 11 -11.9 7 -13.9 85 85 S 7 11 30.39 1029 1.25 2.011675 0.01 0.254
3:15 pm 15:15 Cloudy with Light Snow 11 -11.5 8 -13.6 85 85 S 5 7 30.39 1029 2.5 4.02335 0.01 0.254
3:35 pm 15:35 Cloudy 12 -11.1 8 -13.5 83 83 SSW 5 7 30.39 1029 10 16.0934 0.01 0.254
3:55 pm 15:55 Cloudy with Light Snow 12 -11.1 8 -13.5 83 83 SSE 5 7 30.39 1029 10 16.0934 0.01 0.254
4:15 pm 16:15 Cloudy 12 -11 8 -13.4 83 83 S 3 6 30.39 1029 10 16.0934 0 0
4:35 pm 16:35 Cloudy 12 -11 8 -13.3 83 83 SSE 9 15 30.33 1027 10 16.0934 0 0
4:55 pm 16:55 Cloudy 13 -10.8 9 -13 84 84 S 7 11 30.33 1027 10 16.0934 0 0
5:15 pm 17:15 Mostly Cloudy 12 -11 8 -13.4 83 83 S 9 15 30.33 1027 10 16.0934 0 0
5:35 pm 17:35 Sunny 11 -11.5 8 -13.6 85 85 S 7 11 30.36 1028 10 16.0934 0 0
5:55 pm 17:55 Sunny 11 -11.8 7 -13.9 85 85 SSW 6 9 30.39 1029 10 16.0934 0 0
6:15 pm 18:15 Clear 10 -12.3 7 -14.1 87 87 S 3 6 30.42 1030 10 16.0934 0 0
6:35 pm 18:35 Clear 8 -13.3 5 -15.1 86 86 Calm 30.42 1030 10 16.0934 0 0
6:55 pm 18:55 Clear 6 -14.5 3 -16 88 88 Calm 30.45 1031 10 16.0934 0 0
7:15 pm 19:15 Clear 6 -14.2 4 -15.4 91 91 Calm 30.45 1031 10 16.0934 0 0
7:35 pm 19:35 Clear 6 -14.3 4 -15.3 92 92 Calm 30.48 1032 10 16.0934 0 0
7:55 pm 19:55 Partly Cloudy 3 -16.2 0 -17.6 89 89 Calm 30.5 1033 10 16.0934 0 0
8:15 pm 20:15 Partly Cloudy 1 -17 -1 -18.4 89 89 Calm 30.5 1033 10 16.0934 0 0
8:35 pm 20:35 Clear 2 -16.9 -1 -18.2 90 90 Calm 30.5 1033 10 16.0934 0 0
8:55 pm 20:55 Clear 1 -17.5 -2 -18.9 89 89 Calm 30.5 1033 10 16.0934 0 0
9:15 pm 21:15 Clear 0 -17.9 -3 -19.3 89 89 Calm 30.5 1033 10 16.0934 0 0
9:35 pm 21:35 Clear -2 -18.9 -5 -20.6 87 87 Calm 30.53 1034 10 16.0934 0 0
9:55 pm 21:55 Clear -2 -18.9 -5 -20.5 87 87 Calm 30.53 1034 10 16.0934 0 0
10:15 pm 22:15 Clear -3 -19.6 -6 -21.3 86 86 Calm 30.53 1034 10 16.0934 0 0
10:35 pm 22:35 Clear -2 -18.8 -5 -20.5 87 87 Calm 30.53 1034 10 16.0934 0 0
10:55 pm 22:55 Clear -2 -18.9 -5 -20.6 87 87 Calm 30.56 1035 10 16.0934 0 0
11:15 pm 23:15 Clear -3 -19.2 -6 -21 86 86 Calm 30.53 1034 10 16.0934 0 0
11:35 pm 23:35 Partly Cloudy -1 -18.5 -4 -20.1 87 87 W 3 6 30.56 1035 10 16.0934 0 0
11:55 pm 23:55 Partly Cloudy 4 -15.8 1 -17.1 90 90 W 5 7 30.53 1034 10 16.0934 0 0

Powered by AerisWeather